Decatur, AL

2:23 AM CDT on April 24, 2018 (GMT -0500)
Pryor Regional

Weather History for KDCU - February, 2014

Change the Weather History Date:

Monday, February 24, 2014

  Actual Average Record
Temperature  
Mean Temperature 44 °F -  
Max Temperature 54 °F 58 °F 79 °F (1982)
Min Temperature 34 °F 34 °F 17 °F (1989)
Degree Days  
Heating Degree Days 21    
Moisture  
Dew Point 26 °F    
Average Humidity 54    
Maximum Humidity 81    
Minimum Humidity 28    
Precipitation  
Precipitation 0.00 in - - ()
Sea Level Pressure  
Sea Level Pressure 30.19 in    
Wind  
Wind Speed 10 mph (NNE)    
Max Wind Speed 16 mph    
Max Gust Speed 22 mph    
Visibility 10 miles    
Events      
Averages and records for this station are not official NWS values.
T = Trace of Precipitation, MM = Missing Value Source: NWS Daily Summary

Daily Weather History Graph

Daily Weather History Graph

Search for Another Location

Airport or City:

Astronomy

Feb. 24, 2014 Rise Set
Actual Time 6:23 AM CST 5:39 PM CST
Civil Twilight 5:57 AM CST 6:04 PM CST
Nautical Twilight 5:28 AM CST 6:34 PM CST
Astronomical Twilight 4:59 AM CST 7:03 PM CST
Moon 2:13 AM CST 12:47 PM CST
Length of Visible Light 12h 07m
Length of Day
11h 16m
Waning Crescent, 28% of the Moon is Illuminated
Feb 24
Waning Crescent
Mar 1
New
Mar 8
First Quarter
Mar 16
Full
Mar 23
Last Quarter

Hourly Weather History & Observations

Time (CST) Temp. Windchill Dew Point Humidity Pressure Visibility Wind Dir Wind Speed Gust Speed Precip Events Conditions
12:53 AM 44.1 °F 38.1 °F 36.0 °F 73% 30.12 in 10.0 mi NNE 11.5 mph - N/A   Clear
1:53 AM 44.1 °F 36.8 °F 37.0 °F 76% 30.14 in 10.0 mi North 16.1 mph 20.7 mph N/A   Overcast
2:53 AM 41.0 °F 34.3 °F 35.1 °F 79% 30.16 in 10.0 mi NNE 11.5 mph 20.7 mph N/A   Overcast
3:22 AM 39.2 °F 31.2 °F 33.8 °F 81% 30.18 in 10.0 mi North 13.8 mph 21.9 mph N/A   Scattered Clouds
3:53 AM 37.9 °F 30.0 °F 32.0 °F 79% 30.18 in 10.0 mi North 12.7 mph - N/A   Clear
4:53 AM 36.0 °F 30.3 °F 30.0 °F 79% 30.20 in 10.0 mi North 6.9 mph - N/A   Clear
5:53 AM 34.0 °F 25.5 °F 28.0 °F 79% 30.22 in 10.0 mi North 11.5 mph - N/A   Clear
6:53 AM 34.0 °F 29.8 °F 25.0 °F 70% 30.23 in 10.0 mi NE 4.6 mph - N/A   Clear
7:53 AM 36.0 °F 28.0 °F 24.1 °F 62% 30.24 in 10.0 mi NNE 11.5 mph 19.6 mph N/A   Clear
8:53 AM 39.9 °F 32.9 °F 24.1 °F 53% 30.25 in 10.0 mi NE 11.5 mph 17.3 mph N/A   Clear
9:53 AM 43.0 °F 38.2 °F 24.1 °F 47% 30.26 in 10.0 mi North 8.1 mph - N/A   Clear
10:53 AM 48.0 °F - 23.0 °F 37% 30.25 in 10.0 mi NNE 10.4 mph - N/A   Clear
11:53 AM 50.0 °F - 21.0 °F 32% 30.24 in 10.0 mi North 12.7 mph 19.6 mph N/A   Clear
12:53 PM 52.0 °F - 19.9 °F 28% 30.22 in 10.0 mi NNE 10.4 mph - N/A   Clear
1:53 PM 53.1 °F - 21.0 °F 29% 30.20 in 10.0 mi North 13.8 mph - N/A   Clear
2:53 PM 54.0 °F - 21.9 °F 29% 30.18 in 10.0 mi North 9.2 mph - N/A   Clear
3:53 PM 53.1 °F - 21.9 °F 30% 30.17 in 10.0 mi North 11.5 mph - N/A   Clear
4:53 PM 50.0 °F - 23.0 °F 35% 30.17 in 10.0 mi North 8.1 mph - N/A   Clear
5:53 PM 45.0 °F 42.6 °F 27.0 °F 49% 30.17 in 10.0 mi North 4.6 mph - N/A   Clear
6:53 PM 45.0 °F 41.2 °F 25.0 °F 46% 30.17 in 10.0 mi NNE 6.9 mph - N/A   Clear
7:53 PM 39.9 °F 35.8 °F 24.1 °F 53% 30.17 in 10.0 mi North 5.8 mph - N/A   Clear
8:53 PM 39.9 °F 37.8 °F 21.9 °F 49% 30.16 in 10.0 mi NNE 3.5 mph - N/A   Clear
9:53 PM 39.0 °F 35.7 °F 21.9 °F 50% 30.13 in 10.0 mi East 4.6 mph - N/A   Clear
10:53 PM 37.0 °F 31.6 °F 24.1 °F 59% 30.13 in 10.0 mi North 6.9 mph - N/A   Partly Cloudy
11:53 PM 39.9 °F - 19.9 °F 45% 30.13 in 10.0 mi Calm Calm - N/A   Mostly Cloudy